NOAA 16 DEB, 41265

Orbit data source: Space-Track

NOAA 16 DEB, 41265 is space debris in SSO originally from a launch on Thu, 21 Sep 2000 UTC launched from the Air Force Western Test Range (AFWTR). Debris objects in space refer to the collection of defunct objects orbiting the Earth. Examples of debris include non-operational satellites, rocket bodies, and fragments generated from explosions, collisions, or faulty payload assembly.

Loading next visibility...
Identifier
41265, 2000-055FR
Orbit
SSO
Country
Flag of USUS
Related business
Manufacturer
Unknown
Mission
Spacecraft
Bus & Motor
Unknown
Mass
Unknown
Launch date (UTC)
2000-09-21 (26 years ago)
Launch vehicle
Unknown
Launch site
Air Force Western Test Range (AFWTR)
Object type
Payload
Rocket body
Debris
Shape & HBR
Unknown shape, 0.1 m
Radar Cross Section
Medium (>0.1 m² and <1 m²)

Expand to show TLE details & history
Last TLE update: 7 hours ago

TLE from 7 hours ago
0 NOAA 16 DEB
1 41265U 00055FR  26178.24058559  .00003927  00000-0  16727-2 0  9996
2 41265  98.6342 182.6844 0030464 141.0382 219.3001 14.25453908541424
Epoch: 2026-06-27T05:46Z
TLE epoch observation values (Epoch: 2026-06-27T05:46:26.594Z)
Latitude
-0.00002°
Longitude
-179.28398°
Altitude
826.86 km
Speed
7.431 km/s
True Right ascension
12h 10m 44s
True Declination
0° 00' 00"
Sunlit
Object was in daylight at epoch
Visualization orbit readout
Latitude
Unknown
Longitude
Unknown
Altitude
Unknown
Speed
Unknown
Apparent Right ascension
Unknown
Apparent Declination
Unknown
Sunlit
N/A
Visualization observer readout
Local Sidereal Time
23:45:48
Azimuth
Unknown
Elevation
Unknown
Doppler factor
Unknown
Orbital elements
Apogee altitude
825.995 km
Perigee altitude
782.235 km
Semi-major axis
7,182.252 km
Eccentricity
0.00305
Inclination
98.6342°
RAAN
182.6844°
Arg. of periapsis
141.0382°
True anomaly
219.07964°
Mean anomaly
219.3001°
Eccentric anomaly
219.18981°
Mean motion
3.56576 °/min
Orbital period
100.96 mins
BSTAR
0.0016727
Loading maneuver chart data...
Computing Atmospheric mass density...
Loading historical data...
Loading historical data...
Loading historical data...
Loading historical data...
Loading historical data...
Loading historical data...
Loading historical data...

Documentation

Showing up to 5 results
|